Regional Weather Roundup
Issued by NWS

Home | Current Version | Previous Version | Text Only | Print | Product List | Glossary Off
Versions: 1 2 3 4 5 6 7 8 9 10 11 12 13 14 15 16 17 18 19 20 21 22 23 24 25 26 27 28 29 30 31 32 33 34 35 36 37 38 39 40 41 42 43 44 45 46 47 48 49 50

000
ASUS45 KSLC 221010
RWRUT

UTAH REGIONAL WEATHER ROUNDUP
NATIONAL WEATHER SERVICE SALT LAKE CITY UT
400 AM MDT TUE JUL 22 2014

UTZ001>011-023>025-221100-

NORTHERN UTAH

CITY           SKY/WX    TMP DP  RH WIND       PRES   REMARKS
HILL AFB       CLEAR     71  40  32 E15       30.19R
LOGAN          NOT AVBL
OGDEN          CLEAR     67  44  43 W6        30.16R
PROVO AIRPORT  CLEAR     64  39  39 S6        30.20R
SALT LAKE CITY PTCLDY    70  47  43 CALM      30.14R
VERNAL         CLEAR     66  32  28 CALM      30.22R
WENDOVER       CLEAR     68  50  52 E3        30.17S
HEBER CITY     CLEAR     50  36  57 E3        30.28R
WEST JORDAN    CLEAR     72  41  33 SW10      30.17R

$$

UTZ012>022-026-027-221100-

SOUTHERN UTAH

CITY           SKY/WX    TMP DP  RH WIND       PRES   REMARKS
BRYCE CANYON   CLEAR     45  27  49 W9        30.45R
CEDAR CITY     CLEAR     55  30  38 CALM      30.27R
MILFORD        CLEAR     58  29  33 S7        30.22R
MOAB/CYNLANDS  CLEAR     69  23  17 CALM      30.15R
PRICE          CLEAR     64  21  19 CALM      30.28R
ST GEORGE      SUNNY     72  25  17 CALM      30.09R
KANAB            N/A     59  30  33 NE3       30.28R

$$

REGIONAL REPORTS     COLORADO/ARIZONA

CITY           SKY/WX    TMP DP  RH WIND       PRES   REMARKS
CRAIG, CO      CLEAR     40  40 100 CALM      30.33R
GRAND JUNCTION CLEAR     70  26  19 E13       30.20R
RIFLE          CLEAR     56  30  37 CALM      30.29R
MONTROSE       CLEAR     65  33  30 SE14      30.31S
CORTEZ         CLEAR     50  38  63 E5        30.30S
PAGE, AZ       CLEAR     76  27  16 S3        30.17R
GRAND CANYON   CLEAR     46  33  60 CALM      30.37S
KINGMAN        CLEAR     76  38  25 S6        30.11R
FLAGSTAFF      CLEAR     55  35  47 CALM      30.39S

$$

REGIONAL REPORTS    NEVADA/IDAHO/WYOMING

CITY           SKY/WX    TMP DP  RH WIND       PRES   REMARKS
LAS VEGAS, NV  CLEAR     85  34  16 SW9       29.95R
ELY            CLEAR     54  33  45 S12       30.29S
ELKO           CLEAR     58  52  80 CALM      30.22S
POCATELLO, ID  CLEAR     62  54  74 SW8       30.22R
BURLEY         MOCLDY    60  54  80 S6        30.17S
EVANSTON, WY   CLEAR     56  37  49 SE3       30.38S
ROCK SPRINGS   CLEAR     60  33  36 E6        30.37R

$$


USA.gov is the U.S. government's official web portal to all federal, state and local government web resources and services.